sat.trackr.live / text

‹ back to catalog

STARLINK-37136

NORAD 68347 · 2026-059AC

PAYLOAD ACTIVE UNKNOWN

§ Identity

Operator
Country
US
Launch date
2026-03-22
Launch site
AFETR
Launch vehicle
Mass (kg)
RCS (m²)

Purposes: comms

External: N2YO · Heavens-Above · Gunter

§ Orbital elements

Epoch: 2026-09-20T04:42:40.506624Z

Period
93.85 min
Inclination
53.1596°
Eccentricity
0.0001261
Mean motion
15.34403548 rev/d
Perigee alt
461.8 km
Apogee alt
463.6 km
Semi-major
6,840.8 km
B*
4.3290e-4
RAAN
162.7927°
Arg perigee
92.1925°
Mean anomaly
267.9222°
Rev number
2,798

§ Raw data

STARLINK-371361 68347U 26059AC  26263.19630216  .00014279  00000+0  43290-3 0  99902 68347  53.1596 162.7927 0001261  92.1925 267.9222 15.34403548 27984

JSON: /api/v1/satellites/68347 · /tle

For live sub-satellite position, see the globe view (requires WebGL).

§ Visibility from observer

Set your observer location to see the next 7 days of passes ≥ 10°. The values pass through the URL so the page stays shareable.

No JS? Fill the form by hand. The geolocation button needs JavaScript.